Waterford Township, MI

1:16 PM EDT on September 29, 2016 (GMT -0400)
Oakland County International

Weather History for KPTK - February, 2000

Change the Weather History Date:

Sunday, February 6, 2000

  Actual Average Record
Temperature  
Mean Temperature 18 °F -  
Max Temperature 28 °F 31 °F 48 °F (2012)
Min Temperature 8 °F 17 °F -4 °F (2007)
Degree Days  
Heating Degree Days 47    
Moisture  
Dew Point 14 °F    
Average Humidity 75    
Maximum Humidity 92    
Minimum Humidity 47    
Precipitation  
Precipitation 0.00 in - - ()
Snow  
Snow 0.00 in - - ()
Snow Depth 5.00 in    
Sea Level Pressure  
Sea Level Pressure 30.27 in    
Wind  
Wind Speed 6 mph (SW)    
Max Wind Speed 14 mph    
Max Gust Speed 20 mph    
Visibility 8 miles    
Events      
Averages and records for this station are not official NWS values.
T = Trace of Precipitation, MM = Missing Value Source: NWS Daily Summary

Daily Weather History Graph

Daily Weather History Graph

Search for Another Location

Airport or City:

Trip Planner

Search our weather history database for the weather conditions in past years. The results will help you decide how hot, cold, wet, or windy it might be!

Date:

Astronomy

Feb. 06, 2000 Rise Set
Actual Time 7:43 AM EST 5:52 PM EST
Civil Twilight 7:13 AM EST 6:22 PM EST
Nautical Twilight 6:39 AM EST 6:56 PM EST
Astronomical Twilight 6:07 AM EST 7:29 PM EST
Moon 8:30 AM EST (2/6) 7:08 PM EST (2/6)
Length of Visible Light 11h 09m
Length of Day
10h 09m
New Moon, 1% of the Moon is Illuminated
Feb 6
New Moon
Feb 12
First Quarter
Feb 19
Full
Feb 26
Last Quarter
Mar 6
New

Hourly Weather History & Observations

Time (EST) Temp. Windchill Dew Point Humidity Pressure Visibility Wind Dir Wind Speed Gust Speed Precip Events Conditions
12:53 AM 19.9 °F 12.1 °F 15.1 °F 81% 30.31 in 10.0 mi WNW 5.8 mph - N/A   Clear
1:53 AM 18.0 °F 11.1 °F 14.0 °F 84% 30.33 in 10.0 mi WNW 4.6 mph - N/A   Clear
2:53 AM 16.0 °F 7.4 °F 12.9 °F 88% 30.35 in 10.0 mi West 5.8 mph - N/A   Clear
3:53 AM 17.1 °F - 15.1 °F 92% 30.36 in 10.0 mi Calm Calm - N/A   Clear
4:53 AM 14.0 °F - 10.9 °F 88% 30.37 in 7.0 mi Calm Calm - N/A   Clear
5:53 AM 9.0 °F - 6.1 °F 88% 30.39 in 7.0 mi Calm Calm - N/A   Clear
6:53 AM 8.1 °F - 5.0 °F 87% 30.40 in 7.0 mi Calm Calm - N/A   Clear
7:53 AM 8.1 °F - 5.0 °F 87% 30.41 in 5.0 mi Calm Calm - N/A   Partly Cloudy
8:53 AM 10.0 °F - 6.1 °F 84% 30.41 in 5.0 mi Calm Calm - N/A   Partly Cloudy
9:53 AM 17.1 °F - 12.9 °F 84% 30.39 in 6.0 mi Calm Calm - N/A   Partly Cloudy
10:53 AM 25.0 °F 14.2 °F 16.0 °F 69% 30.38 in 10.0 mi SSW 11.5 mph - N/A   Partly Cloudy
11:53 AM 27.0 °F 16.1 °F 12.0 °F 53% 30.37 in 10.0 mi SW 12.7 mph - 0.00 in   Scattered Clouds
12:53 PM 28.9 °F 18.2 °F 10.9 °F 47% 30.31 in 10.0 mi SW 13.8 mph - N/A   Scattered Clouds
1:53 PM 28.9 °F 18.6 °F 14.0 °F 54% 30.27 in 10.0 mi SSW 12.7 mph - N/A   Mostly Cloudy
2:53 PM 28.9 °F 18.6 °F 16.0 °F 58% 30.23 in 10.0 mi WSW 12.7 mph - N/A   Overcast
3:53 PM 28.0 °F 17.5 °F 17.1 °F 63% 30.21 in 10.0 mi SSW 12.7 mph - N/A   Overcast
4:53 PM 27.0 °F 15.6 °F 17.1 °F 66% 30.19 in 10.0 mi SSW 13.8 mph 19.6 mph N/A   Overcast
5:53 PM 27.0 °F 18.7 °F 18.0 °F 69% 30.16 in 10.0 mi SSW 8.1 mph - N/A   Overcast
6:53 PM 25.0 °F 14.2 °F 18.0 °F 75% 30.17 in 8.0 mi SSW 11.5 mph - N/A   Overcast
7:53 PM 25.0 °F 14.8 °F 19.0 °F 78% 30.15 in 6.0 mi SSW 10.4 mph - N/A   Haze
8:53 PM 25.0 °F 14.8 °F 19.9 °F 81% 30.13 in 5.0 mi SW 10.4 mph - N/A   Haze
9:53 PM 25.0 °F 14.8 °F 19.9 °F 81% 30.10 in 5.0 mi SW 10.4 mph - N/A   Haze
10:53 PM 25.0 °F 14.8 °F 19.0 °F 78% 30.09 in 5.0 mi WSW 10.4 mph - N/A   Haze
11:53 PM 24.1 °F 13.1 °F 17.1 °F 75% 30.07 in 6.0 mi WSW 11.5 mph - N/A   Haze